Terminal Aerodrome Forecast
Issued by NWS

Home | Current Version | Previous Version | Text Only | Print | Product List | Glossary On
Versions: 1 2 3 4 5 6 7 8 9 10 11 12 13 14
000
FTUS43 KPAH 272000 AAA
TAFCGI
TAF AMD
KCGI 272019Z 2720/2818 30010KT P6SM SCT040 BKN250
     FM280100 30005KT P6SM SCT250
     FM281400 34009KT P6SM SCT030=

USA.gov is the U.S. government's official web portal to all federal, state and local government web resources and services.